To NAV CANADA Home Page Login to a new session Search on AWWS site Feedback and Comments Disclaimer Vers la page française équivalente Tips FAQ What's new on the site To the Forecasts and Observations / NOTAM section To "File a Flight Plan" website Publications and other links Update of the User's profile FIC Telephone Numbers My Weather Data Folder Route Weather Data Regional Weather Data Local Weather Data To the Forecasts and Observations / NOTAM section
Request Generated 04/29/2016 at 14:01:18 UTC . Weather information available at that time is displayed.

METAR/TAF

PAULATUK/PAULATUK (NORA ALIQATCHIALUK RUBEN)/NT    

METAR CYPC 291300Z 28005KT 15SM SCT200 M10/M11 A2995 RMK CI3
1.5/-11.0/0/10 MEDIUM PACK SLP144=
LWIS CYPC 291200Z AUTO 26005KT M09/M10 A2995=
LWIS CYPC 291100Z AUTO 26005KT M10/M11 A2995=

*** REMARK        : Forecast period has ended; this was the last TAF issued
*** REMARQUE : La période de prévision est échue; ceci était le dernier TAF qui a été émis
TAF AMD CYPC 282217Z 2822/2823 VRB03KT P6SM FEW030
RMK NXT FCST WILL BE ISSUED AT 291445Z=
Your time UTC time
Weather data provided by Environment Canada and NAV CANADA